FW5769 Weather Reports


time (UTC)temp
C
wind
direction
speed
KPH
gust
KPH
rain 1hr
cm
rain 24hr
cm
rain mn
cm
humidity
%
barometer
mb
20260505001537 21 219 0.0 0.0 0.00 0.00 0.00 40 1012.7
20260505000037 22 219 0.0 0.0 0.00 0.00 0.00 40 1012.5
20260504234535 22 219 0.0 0.0 0.00 0.00 0.00 38 1012.3
20260504233041 23 219 0.0 0.0 0.00 0.00 0.00 37 1012.2
20260504231535 23 219 0.0 0.0 0.00 0.00 0.00 36 1012.1
20260504230035 23 219 0.0 6.4 0.00 0.00 0.00 34 1012.1
20260504224534 24 219 0.0 6.4 0.00 0.00 0.00 33 1012.0
20260504223033 24 224 0.0 3.2 0.00 0.00 0.00 37 1012.0
20260504221533 24 225 0.0 6.4 0.00 0.00 0.00 34 1012.1
20260504220031 24 225 0.0 1.6 0.00 0.00 0.00 35 1012.1
20260504214530 24 226 0.0 4.8 0.00 0.00 0.00 34 1012.2
20260504213028 25 230 0.0 1.6 0.00 0.00 0.00 34 1012.2
20260504211527 25 234 0.0 6.4 0.00 0.00 0.00 31 1012.2
20260504210026 25 236 0.0 6.4 0.00 0.00 0.00 33 1012.3
20260504204523 25 251 0.0 4.8 0.00 0.00 0.00 34 1012.5
20260504203022 24 253 0.0 8.0 0.00 0.00 0.00 37 1012.6
20260504201518 24 255 0.0 6.4 0.00 0.00 0.00 36 1012.8
20260504200033 24 260 0.0 6.4 0.00 0.00 0.00 35 1013.1
20260504194514 23 260 0.0 3.2 0.00 0.00 0.00 39 1013.2
20260504193013 23 260 0.0 3.2 0.00 0.00 0.00 38 1013.3
20260504191522 23 260 0.0 3.2 0.00 0.00 0.00 38 1013.5
20260504190010 23 270 0.0 3.2 0.00 0.00 0.00 39 1013.8
20260504184511 22 270 0.0 0.0 0.00 0.00 0.00 41 1014.1
20260504183000 22 270 0.0 3.2 0.00 0.00 0.00 51 1014.3
20260504181559 21 270 0.0 3.2 0.00 0.00 0.00 52 1014.5
20260504180058 22 270 0.0 1.6 0.00 0.00 0.00 41 1014.5
20260504174606 22 270 0.0 3.2 0.00 0.00 0.00 40 1014.6
20260504173102 21 270 0.0 8.0 0.00 0.00 0.00 42 1014.5
20260504171552 21 270 0.0 8.0 0.00 0.00 0.00 43 1014.9
20260504100103 10 270 0.0 0.0 0.00 0.00 0.00 79 1015.8
20260504081547 11 270 0.0 0.0 0.00 0.00 0.00 74 1015.6
20260504050021 14 270 0.0 1.6 0.00 0.00 0.00 60 1015.8
20260504044530 14 270 0.0 3.2 0.00 0.00 0.00 59 1015.5
20260504043019 14 270 0.0 4.8 0.00 0.00 0.00 59 1015.8
20260504041519 14 270 0.0 1.6 0.00 0.00 0.00 59 1015.8
20260504040015 14 270 0.0 0.0 0.00 0.00 0.00 58 1016.0
20260504034513 15 270 0.0 0.0 0.00 0.00 0.00 57 1016.0
20260504033013 15 270 0.0 1.6 0.00 0.00 0.00 56 1016.1
20260504031513 15 270 0.0 0.0 0.00 0.00 0.00 55 1016.1
20260504030030 15 270 0.0 1.6 0.00 0.00 0.00 53 1016.1
20260504024512 15 275 0.0 1.6 0.00 0.00 0.00 52 1016.1
20260504023011 16 275 0.0 3.2 0.00 0.00 0.00 52 1015.9
20260504021510 16 275 0.0 0.0 0.00 0.00 0.00 50 1015.7
20260504020010 16 275 0.0 0.0 0.00 0.00 0.00 49 1015.4
20260504014524 16 275 0.0 0.0 0.00 0.00 0.00 48 1015.2
20260504013009 16 275 0.0 1.6 0.00 0.00 0.00 47 1015.0
20260504011508 16 275 0.0 1.6 0.00 0.00 0.00 46 1014.9
20260504010009 16 275 0.0 1.6 0.00 0.00 0.00 45 1014.8
20260504004511 16 275 0.0 0.0 0.00 0.00 0.00 45 1014.7
20260504003017 16 275 0.0 0.0 0.00 0.00 0.00 44 1014.8